Tracking 20037 objects as of 20-Nov-2019
Live streaming from Space Station
objects crossing your sky now

COSMOS 994

Track COSMOS 994 now!
10-day predictions
COSMOS 994 is classified as:


NORAD ID: 10731
Int'l Code: 1978-028A
Perigee: 977.2 km
Apogee: 1,013.3 km
Inclination: 82.9 °
Period: 104.9 minutes
Semi major axis: 7366 km
RCS: 2.0708 m2 (large)
Launch date: March 15, 1978
Source: Commonwealth of Independent States (former USSR) (CIS)
Launch site: PLESETSK MISSILE AND SPACE COMPLEX (PKMTR)
aabbcc
Your satellite tracking list
Your tracking list is empty




NASA's NSSDC Master Catalog

Two Line Element Set (TLE):
1 10731U 78028A   19324.02706833  .00000026  00000-0  11620-4 0  9997
2 10731  82.9313 351.1941 0024503 103.1718 316.5718 13.73207841 88529
Source of the keplerian elements: AFSPC